Weather in Bologna

Italy     44°30′17″N   11°20′42″E
temp.,
°C
wind,
m/s
gust,
m/s
humid.,
%
clouds,
%
prec.,
mm/h
press.,
hPa
HPBL,
m
13 may, thu
thu1323:00+9ssw348512 0.0 100855
02:00+8sw33847 0.0 100736
05:00+9ssw3384100 0.0 100648
08:00+12sw2276100 0.0 1006126
11:00+17ssw245796 0.0 1005998
14:00+19ssw455752 0.2 10041206
17:00+19ssw455566 0.1 10031017
20:00+14ssw35634 0.1 100487
14 may, fri
fri1423:00+9ssw46862 0.0 100698
02:00+9sw22915 0.0 100722
05:00+9sw229198 0.0 100723
08:00+13wsw12785 0.0 1008288
11:00+17nne226366 0.1 1008960
14:00+18sw2364100 3.3 10081086
17:00+18sw2462100 2.6 1007813
20:00+14wnw1283100 4.6 100831
15 may, sat
sat1523:00+12w3693100 1.8 1010208
02:00+11wsw2291100 2.1 101052
05:00+11wnw2494100 0.0 1011139
08:00+12wsw1290100 0.0 1012117
11:00+14wnw118188 0.0 1012338
14:00+19ene236343 0.4 10101043
17:00+20ne025792 0.6 10081045
20:00+15sw467486 0.9 1008116
16 may, sun
sun1623:00+11sw358320 0.0 101070
02:00+13ssw2280100 0.0 100955
05:00+13ssw1283100 0.0 100949
08:00+14sse1282100 0.0 1010159
11:00+16e127894 0.0 1010428
14:00+16s3479100 0.1 1010488
17:00+19ssw446651 0.0 1008741
20:00+16ssw478356 0.0 1008236
17 may, mon
mon1723:00+13ssw46905 0.0 100996
02:00+13ssw339216 0.0 100847
05:00+12wsw229389 0.0 100723
08:00+17sw1379100 0.0 1007343
11:00+20nw3563100 0.0 10071136
14:00+23nnw365090 0.2 10061689
17:00+22wnw4642100 0.0 10061609
20:00+16sse136845 0.0 100846